Location: Newark
(44.6303°N, 123.0961°W)
Time: 20:56:55
(UTC+00:00)

Envisat - Pass Details

Date: 28 January 2020
Orbit: 764 x 766 km, 98.1° (Epoch: 25 February)

Event Time Altitude Azimuth Distance (km) Brightness Sun altitude
Rises 02:13:55 0° 174° (S) 3,219 6.4 -10.9°
Reaches altitude 10° 02:16:15 10° 178° (S) 2,297 5.6 -11.2°
Maximum altitude 02:21:15 62° 259° (W) 860 3.6 -12.1°
Drops below altitude 10° 02:26:19 10° 340° (NNW) 2,313 5.6 -13.0°
Sets 02:28:40 0° 344° (NNW) 3,244 6.3 -13.4°
